Terminal Aerodrome Forecast
Issued by NWS

Home | Current Version | Previous Version | Text Only | Print | Product List | Glossary On
Versions: 1 2 3 4 5 6 7 8 9 10 11 12 13 14 15 16 17 18 19 20 21 22 23 24 25
000
FTUS44 KOUN 261120
TAFWWR
TAF
KWWR 261120Z 2612/2712 24006KT P6SM SKC
     FM261300 28012KT P6SM SKC
     FM261600 31017G24KT P6SM SKC
     FM270000 30007KT P6SM SKC=

USA.gov is the U.S. government's official web portal to all federal, state and local government web resources and services.